Find Aries 1

NORAD ID: 59129 Int'l Des: 2024-043 Owner: APEX Country: US operational
LEOCIRCULARRETROGRADE

实时位置

正在加载3D地球...

关于 Aries 1

正在加载描述...

即将过境

Passes for default location (London). Set your location on the main map for personalized predictions.

高度历史

Loading altitude history...

两行轨道根数

1 59129U 24043AH 26104.40601654 .00015195 00000-0 24678-3 0 9999
2 59129 97.5381 251.2509 0006779 83.8550 276.3475 15.52797324118013
Epoch: Apr 14, 2026 • Age: 11 hours

当前状态

高度 416.7 km
速度 7.67 km/s
星下点 71.57°N, 63.48°W
发射日期 Mar 4, 2024
运行时间 2.1 years
类型 other

技术详情

分类 Payload
质量 200.00 kg
干质量 200.00 kg
总质量 200.00 kg
长度 0.60 m
直径 1.10 m
跨度 3.50 m
形状 Box + 2 pan
制造商 APEX
平台类型 Aries
阶段状态 In Orbit
所有者/国家 APEX/US

Most Searched